contact:dominique.lefevre@mio.osupytheas.fr, maurice.libes@osupytheas.fr, didier.mallarino@osupytheas.fr
Project:EMSO http://www.emso-fr.org/EMSO-France
Depth: 2436.0 m
Title:EMSO Ligure Ouest : Data MII capteur MICROCAT
DateTime_Computer,Latitude,Longitude,Temperature,Conductivity,Pressure,DateTime_Instrument
DateTime_Computer,Latitude,Longitude,degC,S m-1,dbar,DateTime_Instrument
2023-03-31T00:01:03Z,42.805,6.029,13.3025,4.60082,2470.67,2023-3-31T02:03:51Z
2023-03-31T00:04:06Z,42.805,6.029,13.3023,4.60083,2470.684,2023-3-31T02:06:55Z
2023-03-31T00:07:09Z,42.805,6.029,13.3034,4.60086,2470.754,2023-3-31T02:09:58Z
2023-03-31T00:10:12Z,42.805,6.029,13.3026,4.60094,2470.693,2023-3-31T02:13:01Z
2023-03-31T00:13:16Z,42.805,6.029,13.3026,4.60084,2470.693,2023-3-31T02:16:04Z
2023-03-31T00:16:19Z,42.805,6.029,13.3024,4.60084,2470.693,2023-3-31T02:19:07Z
2023-03-31T00:19:22Z,42.805,6.029,13.3026,4.60089,2470.73,2023-3-31T02:22:10Z
2023-03-31T00:22:25Z,42.805,6.029,13.3024,4.60082,2470.717,2023-3-31T02:25:13Z
2023-03-31T00:25:28Z,42.805,6.029,13.3026,4.60085,2470.717,2023-3-31T02:28:16Z
2023-03-31T00:28:31Z,42.805,6.029,13.3026,4.60081,2470.717,2023-3-31T02:31:19Z
2023-03-31T00:31:34Z,42.805,6.029,13.3026,4.60081,2470.707,2023-3-31T02:34:22Z
2023-03-31T00:34:37Z,42.805,6.029,13.3025,4.60084,2470.73,2023-3-31T02:37:25Z
2023-03-31T00:37:40Z,42.805,6.029,13.3025,4.60084,2470.717,2023-3-31T02:40:28Z
2023-03-31T00:40:43Z,42.805,6.029,13.3033,4.60085,2470.73,2023-3-31T02:43:32Z
2023-03-31T00:43:46Z,42.805,6.029,13.3025,4.60081,2470.74,2023-3-31T02:46:35Z
2023-03-31T00:46:49Z,42.805,6.029,13.3023,4.60080,2470.73,2023-3-31T02:49:38Z
2023-03-31T00:49:53Z,42.805,6.029,13.3029,4.60082,2470.74,2023-3-31T02:52:41Z
2023-03-31T00:52:56Z,42.805,6.029,13.3024,4.60082,2470.717,2023-3-31T02:55:44Z
2023-03-31T00:55:59Z,42.805,6.029,13.3024,4.60088,2470.74,2023-3-31T02:58:47Z
2023-03-31T00:59:02Z,42.805,6.029,13.3026,4.60084,2470.707,2023-3-31T03:01:50Z
2023-03-31T01:02:05Z,42.805,6.029,13.3024,4.60081,2470.717,2023-3-31T03:04:53Z
2023-03-31T01:05:08Z,42.805,6.029,13.3021,4.60079,2470.717,2023-3-31T03:07:56Z
2023-03-31T01:08:11Z,42.805,6.029,13.3026,4.60090,2470.74,2023-3-31T03:10:59Z
2023-03-31T01:11:14Z,42.805,6.029,13.3025,4.60080,2470.717,2023-3-31T03:14:02Z
2023-03-31T01:14:17Z,42.805,6.029,13.3029,4.60086,2470.717,2023-3-31T03:17:05Z
2023-03-31T01:17:20Z,42.805,6.029,13.3027,4.60084,2470.707,2023-3-31T03:20:09Z
2023-03-31T01:20:23Z,42.805,6.029,13.3026,4.60084,2470.74,2023-3-31T03:23:12Z
2023-03-31T01:23:26Z,42.805,6.029,13.3023,4.60084,2470.74,2023-3-31T03:26:15Z
2023-03-31T01:26:30Z,42.805,6.029,13.3026,4.60084,2470.73,2023-3-31T03:29:18Z
2023-03-31T01:29:33Z,42.805,6.029,13.3024,4.60084,2470.777,2023-3-31T03:32:21Z
2023-03-31T01:32:36Z,42.805,6.029,13.3026,4.60081,2470.74,2023-3-31T03:35:24Z
2023-03-31T01:35:39Z,42.805,6.029,13.3027,4.60084,2470.717,2023-3-31T03:38:27Z
2023-03-31T01:38:42Z,42.805,6.029,13.3024,4.60083,2470.73,2023-3-31T03:41:30Z
2023-03-31T01:41:45Z,42.805,6.029,13.3026,4.60079,2470.74,2023-3-31T03:44:33Z
2023-03-31T01:44:48Z,42.805,6.029,13.3026,4.60079,2470.754,2023-3-31T03:47:36Z
2023-03-31T01:47:51Z,42.805,6.029,13.3026,4.60088,2470.74,2023-3-31T03:50:39Z
2023-03-31T01:50:54Z,42.805,6.029,13.3024,4.60081,2470.73,2023-3-31T03:53:42Z
2023-03-31T01:53:57Z,42.805,6.029,13.3025,4.60080,2470.693,2023-3-31T03:56:46Z
2023-03-31T01:57:00Z,42.805,6.029,13.3028,4.60081,2470.74,2023-3-31T03:59:49Z
2023-03-31T02:00:03Z,42.805,6.029,13.3024,4.60084,2470.763,2023-3-31T04:02:52Z
2023-03-31T02:03:07Z,42.805,6.029,13.3026,4.60086,2470.74,2023-3-31T04:05:55Z
2023-03-31T02:06:10Z,42.805,6.029,13.3028,4.60082,2470.754,2023-3-31T04:08:58Z
2023-03-31T02:09:13Z,42.805,6.029,13.3027,4.60084,2470.74,2023-3-31T04:12:01Z
2023-03-31T02:12:16Z,42.805,6.029,13.3024,4.60081,2470.754,2023-3-31T04:15:04Z
2023-03-31T02:15:19Z,42.805,6.029,13.3025,4.60084,2470.754,2023-3-31T04:18:07Z
2023-03-31T02:18:22Z,42.805,6.029,13.3030,4.60081,2470.777,2023-3-31T04:21:10Z
2023-03-31T02:21:25Z,42.805,6.029,13.3033,4.60084,2470.74,2023-3-31T04:24:13Z
2023-03-31T02:24:28Z,42.805,6.029,13.3027,4.60084,2470.777,2023-3-31T04:27:16Z
2023-03-31T02:27:31Z,42.805,6.029,13.3020,4.60083,2470.754,2023-3-31T04:30:19Z
2023-03-31T02:30:34Z,42.805,6.029,13.3027,4.60084,2470.74,2023-3-31T04:33:23Z
2023-03-31T02:33:37Z,42.805,6.029,13.3024,4.60083,2470.754,2023-3-31T04:36:26Z
2023-03-31T02:36:40Z,42.805,6.029,13.3022,4.60079,2470.74,2023-3-31T04:39:29Z
2023-03-31T02:39:44Z,42.805,6.029,13.3026,4.60081,2470.763,2023-3-31T04:42:32Z
2023-03-31T02:42:47Z,42.805,6.029,13.3027,4.60081,2470.754,2023-3-31T04:45:35Z
2023-03-31T02:45:50Z,42.805,6.029,13.3026,4.60079,2470.763,2023-3-31T04:48:38Z
2023-03-31T02:48:53Z,42.805,6.029,13.3027,4.60086,2470.763,2023-3-31T04:51:41Z
2023-03-31T02:51:56Z,42.805,6.029,13.3021,4.60083,2470.74,2023-3-31T04:54:44Z
2023-03-31T02:54:59Z,42.805,6.029,13.3026,4.60083,2470.74,2023-3-31T04:57:47Z
2023-03-31T02:58:02Z,42.805,6.029,13.3029,4.60082,2470.777,2023-3-31T05:00:50Z
2023-03-31T03:01:05Z,42.805,6.029,13.3029,4.60080,2470.763,2023-3-31T05:03:53Z
2023-03-31T03:04:08Z,42.805,6.029,13.3021,4.60082,2470.763,2023-3-31T05:06:56Z
2023-03-31T03:07:11Z,42.805,6.029,13.3026,4.60080,2470.754,2023-3-31T05:10:00Z
2023-03-31T03:10:14Z,42.805,6.029,13.3029,4.60082,2470.74,2023-3-31T05:13:03Z
2023-03-31T03:13:17Z,42.805,6.029,13.3024,4.60084,2470.763,2023-3-31T05:16:06Z
2023-03-31T03:16:20Z,42.805,6.029,13.3025,4.60082,2470.777,2023-3-31T05:19:09Z
2023-03-31T03:19:24Z,42.805,6.029,13.3026,4.60082,2470.787,2023-3-31T05:22:12Z
2023-03-31T03:22:27Z,42.805,6.029,13.3030,4.60081,2470.763,2023-3-31T05:25:15Z
2023-03-31T03:25:30Z,42.805,6.029,13.3028,4.60082,2470.763,2023-3-31T05:28:18Z
2023-03-31T03:28:33Z,42.805,6.029,13.3027,4.60084,2470.74,2023-3-31T05:31:21Z
2023-03-31T03:31:36Z,42.805,6.029,13.3021,4.60081,2470.74,2023-3-31T05:34:24Z
2023-03-31T03:34:39Z,42.805,6.029,13.3024,4.60083,2470.8,2023-3-31T05:37:27Z
2023-03-31T03:37:42Z,42.805,6.029,13.3026,4.60082,2470.763,2023-3-31T05:40:30Z
2023-03-31T03:40:45Z,42.805,6.029,13.3024,4.60084,2470.763,2023-3-31T05:43:33Z
2023-03-31T03:43:48Z,42.805,6.029,13.3024,4.60083,2470.754,2023-3-31T05:46:37Z
2023-03-31T03:46:51Z,42.805,6.029,13.3021,4.60081,2470.787,2023-3-31T05:49:40Z
2023-03-31T03:49:54Z,42.805,6.029,13.3027,4.60082,2470.74,2023-3-31T05:52:43Z
2023-03-31T03:52:57Z,42.805,6.029,13.3024,4.60077,2470.787,2023-3-31T05:55:46Z
2023-03-31T03:56:01Z,42.805,6.029,13.3018,4.60079,2470.75,2023-3-31T05:58:49Z
2023-03-31T03:59:04Z,42.805,6.029,13.3026,4.60081,2470.777,2023-3-31T06:01:52Z
2023-03-31T04:02:07Z,42.805,6.029,13.3022,4.60083,2470.763,2023-3-31T06:04:55Z
2023-03-31T04:05:10Z,42.805,6.029,13.3028,4.60084,2470.74,2023-3-31T06:07:58Z
2023-03-31T04:08:13Z,42.805,6.029,13.3025,4.60082,2470.763,2023-3-31T06:11:01Z
2023-03-31T04:11:16Z,42.805,6.029,13.3027,4.60081,2470.763,2023-3-31T06:14:04Z
2023-03-31T04:14:19Z,42.805,6.029,13.3021,4.60082,2470.763,2023-3-31T06:17:07Z
2023-03-31T04:17:22Z,42.805,6.029,13.3029,4.60082,2470.763,2023-3-31T06:20:10Z
2023-03-31T04:20:25Z,42.805,6.029,13.3028,4.60084,2470.763,2023-3-31T06:23:13Z
2023-03-31T04:23:28Z,42.805,6.029,13.3021,4.60081,2470.74,2023-3-31T06:26:17Z
2023-03-31T04:26:31Z,42.805,6.029,13.3029,4.60083,2470.74,2023-3-31T06:29:20Z
2023-03-31T04:29:34Z,42.805,6.029,13.3029,4.60082,2470.763,2023-3-31T06:32:23Z
2023-03-31T04:32:38Z,42.805,6.029,13.3024,4.60081,2470.763,2023-3-31T06:35:26Z
2023-03-31T04:35:41Z,42.805,6.029,13.3024,4.60081,2470.787,2023-3-31T06:38:29Z
2023-03-31T04:38:44Z,42.805,6.029,13.3026,4.60082,2470.74,2023-3-31T06:41:32Z
2023-03-31T04:41:47Z,42.805,6.029,13.3021,4.60079,2470.763,2023-3-31T06:44:35Z
2023-03-31T04:44:50Z,42.805,6.029,13.3024,4.60081,2470.763,2023-3-31T06:47:38Z
2023-03-31T04:47:53Z,42.805,6.029,13.3022,4.60080,2470.763,2023-3-31T06:50:41Z
2023-03-31T04:50:56Z,42.805,6.029,13.3026,4.60081,2470.763,2023-3-31T06:53:44Z
2023-03-31T04:53:59Z,42.805,6.029,13.3026,4.60078,2470.777,2023-3-31T06:56:47Z
2023-03-31T04:57:02Z,42.805,6.029,13.3028,4.60081,2470.75,2023-3-31T06:59:51Z
2023-03-31T05:00:05Z,42.805,6.029,13.3027,4.60088,2470.74,2023-3-31T07:02:54Z
2023-03-31T05:03:08Z,42.805,6.029,13.3028,4.60081,2470.754,2023-3-31T07:05:57Z
2023-03-31T05:06:11Z,42.805,6.029,13.3026,4.60084,2470.763,2023-3-31T07:09:00Z
2023-03-31T05:09:14Z,42.805,6.029,13.3028,4.60086,2470.777,2023-3-31T07:12:03Z
2023-03-31T05:12:18Z,42.805,6.029,13.3027,4.60086,2470.763,2023-3-31T07:15:06Z
2023-03-31T05:15:21Z,42.805,6.029,13.3026,4.60084,2470.717,2023-3-31T07:18:09Z
2023-03-31T05:18:24Z,42.805,6.029,13.3029,4.60083,2470.74,2023-3-31T07:21:12Z
2023-03-31T05:21:27Z,42.805,6.029,13.3034,4.60088,2470.763,2023-3-31T07:24:15Z
2023-03-31T05:24:30Z,42.805,6.029,13.3028,4.60081,2470.754,2023-3-31T07:27:18Z
2023-03-31T05:27:33Z,42.805,6.029,13.3026,4.60080,2470.74,2023-3-31T07:30:21Z
2023-03-31T05:30:36Z,42.805,6.029,13.3025,4.60081,2470.754,2023-3-31T07:33:24Z
2023-03-31T05:33:39Z,42.805,6.029,13.3024,4.60082,2470.777,2023-3-31T07:36:28Z
2023-03-31T05:36:42Z,42.805,6.029,13.3031,4.60087,2470.74,2023-3-31T07:39:31Z
2023-03-31T05:39:45Z,42.805,6.029,13.3023,4.60079,2470.777,2023-3-31T07:42:34Z
2023-03-31T05:42:48Z,42.805,6.029,13.3023,4.60086,2470.74,2023-3-31T07:45:37Z
2023-03-31T05:45:52Z,42.805,6.029,13.3023,4.60084,2470.74,2023-3-31T07:48:40Z
2023-03-31T05:48:55Z,42.805,6.029,13.3028,4.60081,2470.763,2023-3-31T07:51:43Z
2023-03-31T05:51:58Z,42.805,6.029,13.3027,4.60084,2470.777,2023-3-31T07:54:46Z
2023-03-31T05:55:01Z,42.805,6.029,13.3031,4.60092,2470.763,2023-3-31T07:57:49Z
2023-03-31T05:58:04Z,42.805,6.029,13.3026,4.60083,2470.763,2023-3-31T08:00:52Z
2023-03-31T06:01:07Z,42.805,6.029,13.3034,4.60084,2470.74,2023-3-31T08:03:55Z
2023-03-31T06:04:10Z,42.805,6.029,13.3026,4.60084,2470.74,2023-3-31T08:06:58Z
2023-03-31T06:07:13Z,42.805,6.029,13.3029,4.60084,2470.74,2023-3-31T08:10:01Z
2023-03-31T06:10:16Z,42.805,6.029,13.3026,4.60081,2470.73,2023-3-31T08:13:05Z
2023-03-31T06:13:19Z,42.805,6.029,13.3022,4.60084,2470.74,2023-3-31T08:16:08Z
2023-03-31T06:16:22Z,42.805,6.029,13.3031,4.60084,2470.777,2023-3-31T08:19:11Z
2023-03-31T06:19:25Z,42.805,6.029,13.3026,4.60085,2470.754,2023-3-31T08:22:14Z
2023-03-31T06:22:28Z,42.805,6.029,13.3028,4.60090,2470.763,2023-3-31T08:25:17Z
2023-03-31T06:25:32Z,42.805,6.029,13.3029,4.60085,2470.754,2023-3-31T08:28:20Z
2023-03-31T06:28:35Z,42.805,6.029,13.3026,4.60085,2470.717,2023-3-31T08:31:23Z
2023-03-31T06:31:38Z,42.805,6.029,13.3025,4.60082,2470.74,2023-3-31T08:34:26Z
2023-03-31T06:34:41Z,42.805,6.029,13.3025,4.60082,2470.74,2023-3-31T08:37:29Z
2023-03-31T06:37:44Z,42.805,6.029,13.3026,4.60087,2470.754,2023-3-31T08:40:32Z
2023-03-31T06:40:47Z,42.805,6.029,13.3029,4.60081,2470.754,2023-3-31T08:43:35Z
2023-03-31T06:43:50Z,42.805,6.029,13.3031,4.60087,2470.717,2023-3-31T08:46:38Z
2023-03-31T06:46:53Z,42.805,6.029,13.3031,4.60084,2470.763,2023-3-31T08:49:42Z
2023-03-31T06:49:56Z,42.805,6.029,13.3026,4.60084,2470.73,2023-3-31T08:52:45Z
2023-03-31T06:52:59Z,42.805,6.029,13.3033,4.60085,2470.707,2023-3-31T08:55:48Z
2023-03-31T06:56:02Z,42.805,6.029,13.3029,4.60085,2470.73,2023-3-31T08:58:51Z
2023-03-31T06:59:05Z,42.805,6.029,13.3027,4.60084,2470.74,2023-3-31T09:01:54Z
2023-03-31T07:02:09Z,42.805,6.029,13.3026,4.60085,2470.73,2023-3-31T09:04:57Z
2023-03-31T07:05:12Z,42.805,6.029,13.3026,4.60081,2470.717,2023-3-31T09:08:00Z
2023-03-31T07:08:15Z,42.805,6.029,13.3026,4.60088,2470.74,2023-3-31T09:11:03Z
2023-03-31T07:11:18Z,42.805,6.029,13.3028,4.60081,2470.717,2023-3-31T09:14:06Z
2023-03-31T07:14:21Z,42.805,6.029,13.3026,4.60085,2470.717,2023-3-31T09:17:09Z
2023-03-31T07:17:24Z,42.805,6.029,13.3028,4.60084,2470.717,2023-3-31T09:20:12Z
2023-03-31T07:20:27Z,42.805,6.029,13.3033,4.60087,2470.73,2023-3-31T09:23:15Z
2023-03-31T07:23:30Z,42.805,6.029,13.3033,4.60086,2470.693,2023-3-31T09:26:19Z
2023-03-31T07:26:33Z,42.805,6.029,13.3024,4.60086,2470.74,2023-3-31T09:29:22Z
2023-03-31T07:29:36Z,42.805,6.029,13.3029,4.60087,2470.717,2023-3-31T09:32:25Z
2023-03-31T07:32:39Z,42.805,6.029,13.3027,4.60087,2470.73,2023-3-31T09:35:28Z
2023-03-31T07:35:42Z,42.805,6.029,13.3029,4.60084,2470.717,2023-3-31T09:38:31Z
2023-03-31T07:38:46Z,42.805,6.029,13.3031,4.60087,2470.717,2023-3-31T09:41:34Z
2023-03-31T07:41:49Z,42.805,6.029,13.3028,4.60086,2470.717,2023-3-31T09:44:37Z
2023-03-31T07:44:52Z,42.805,6.029,13.3031,4.60085,2470.67,2023-3-31T09:47:40Z
2023-03-31T07:47:55Z,42.805,6.029,13.3030,4.60087,2470.693,2023-3-31T09:50:43Z
2023-03-31T07:50:58Z,42.805,6.029,13.3025,4.60082,2470.754,2023-3-31T09:53:46Z
2023-03-31T07:54:01Z,42.805,6.029,13.3029,4.60081,2470.73,2023-3-31T09:56:49Z
2023-03-31T07:57:04Z,42.805,6.029,13.3024,4.60087,2470.693,2023-3-31T09:59:52Z
2023-03-31T08:00:07Z,42.805,6.029,13.3026,4.60086,2470.74,2023-3-31T10:02:56Z
2023-03-31T08:03:10Z,42.805,6.029,13.3021,4.60082,2470.707,2023-3-31T10:05:59Z
2023-03-31T08:06:13Z,42.805,6.029,13.3025,4.60086,2470.73,2023-3-31T10:09:02Z
2023-03-31T08:09:16Z,42.805,6.029,13.3030,4.60087,2470.67,2023-3-31T10:12:05Z
2023-03-31T08:12:19Z,42.805,6.029,13.3026,4.60088,2470.707,2023-3-31T10:15:08Z
2023-03-31T08:15:23Z,42.805,6.029,13.3032,4.60087,2470.707,2023-3-31T10:18:11Z
2023-03-31T08:18:26Z,42.805,6.029,13.3031,4.60087,2470.693,2023-3-31T10:21:14Z
2023-03-31T08:21:29Z,42.805,6.029,13.3029,4.60081,2470.693,2023-3-31T10:24:17Z
2023-03-31T08:24:32Z,42.805,6.029,13.3029,4.60087,2470.693,2023-3-31T10:27:20Z
2023-03-31T08:27:35Z,42.805,6.029,13.3026,4.60082,2470.717,2023-3-31T10:30:23Z
2023-03-31T08:30:38Z,42.805,6.029,13.3026,4.60097,2470.693,2023-3-31T10:33:26Z
2023-03-31T08:33:41Z,42.805,6.029,13.3028,4.60084,2470.693,2023-3-31T10:36:29Z
2023-03-31T08:36:44Z,42.805,6.029,13.3026,4.60086,2470.693,2023-3-31T10:39:33Z
2023-03-31T08:39:47Z,42.805,6.029,13.3025,4.60087,2470.693,2023-3-31T10:42:36Z
2023-03-31T08:42:50Z,42.805,6.029,13.3028,4.60092,2470.73,2023-3-31T10:45:39Z
2023-03-31T08:45:53Z,42.805,6.029,13.3025,4.60086,2470.67,2023-3-31T10:48:42Z
2023-03-31T08:48:57Z,42.805,6.029,13.3031,4.60088,2470.679,2023-3-31T10:51:45Z
2023-03-31T08:52:00Z,42.805,6.029,13.3026,4.60089,2470.67,2023-3-31T10:54:48Z
2023-03-31T08:55:03Z,42.805,6.029,13.3028,4.60088,2470.717,2023-3-31T10:57:51Z
2023-03-31T08:58:06Z,42.805,6.029,13.3029,4.60091,2470.684,2023-3-31T11:00:54Z
2023-03-31T09:01:09Z,42.805,6.029,13.3024,4.60087,2470.717,2023-3-31T11:03:57Z
2023-03-31T09:04:12Z,42.805,6.029,13.3032,4.60086,2470.693,2023-3-31T11:07:00Z
2023-03-31T09:07:15Z,42.805,6.029,13.3034,4.60085,2470.693,2023-3-31T11:10:03Z
2023-03-31T09:10:18Z,42.805,6.029,13.3026,4.60084,2470.693,2023-3-31T11:13:07Z
2023-03-31T09:13:21Z,42.805,6.029,13.3028,4.60087,2470.661,2023-3-31T11:16:10Z
2023-03-31T09:16:24Z,42.805,6.029,13.3026,4.60089,2470.693,2023-3-31T11:19:13Z
2023-03-31T09:19:27Z,42.805,6.029,13.3029,4.60090,2470.684,2023-3-31T11:22:16Z
2023-03-31T09:22:30Z,42.805,6.029,13.3026,4.60085,2470.693,2023-3-31T11:25:19Z
2023-03-31T09:25:34Z,42.805,6.029,13.3028,4.60089,2470.67,2023-3-31T11:28:22Z
2023-03-31T09:28:37Z,42.805,6.029,13.3029,4.60087,2470.707,2023-3-31T11:31:25Z
2023-03-31T09:31:40Z,42.805,6.029,13.3026,4.60085,2470.707,2023-3-31T11:34:28Z
2023-03-31T09:34:43Z,42.805,6.029,13.3026,4.60085,2470.67,2023-3-31T11:37:31Z
2023-03-31T09:37:46Z,42.805,6.029,13.3033,4.60092,2470.67,2023-3-31T11:40:34Z
2023-03-31T09:40:49Z,42.805,6.029,13.3028,4.60084,2470.67,2023-3-31T11:43:37Z
2023-03-31T09:43:52Z,42.805,6.029,13.3033,4.60087,2470.646,2023-3-31T11:46:41Z
2023-03-31T09:46:55Z,42.805,6.029,13.3027,4.60084,2470.646,2023-3-31T11:49:44Z
2023-03-31T09:49:58Z,42.805,6.029,13.3029,4.60087,2470.684,2023-3-31T11:52:47Z
2023-03-31T09:53:01Z,42.805,6.029,13.3029,4.60087,2470.646,2023-3-31T11:55:50Z
2023-03-31T09:56:04Z,42.805,6.029,13.3030,4.60088,2470.67,2023-3-31T11:58:53Z
2023-03-31T09:59:08Z,42.805,6.029,13.3026,4.60088,2470.684,2023-3-31T12:01:56Z
2023-03-31T10:02:11Z,42.805,6.029,13.3027,4.60089,2470.707,2023-3-31T12:04:59Z
2023-03-31T10:05:14Z,42.805,6.029,13.3031,4.60094,2470.693,2023-3-31T12:08:02Z
2023-03-31T10:08:17Z,42.805,6.029,13.3029,4.60086,2470.67,2023-3-31T12:11:05Z
2023-03-31T10:11:20Z,42.805,6.029,13.3031,4.60087,2470.684,2023-3-31T12:14:08Z
2023-03-31T10:14:23Z,42.805,6.029,13.3032,4.60087,2470.637,2023-3-31T12:17:11Z
2023-03-31T10:17:26Z,42.805,6.029,13.3028,4.60087,2470.646,2023-3-31T12:20:14Z
2023-03-31T10:20:29Z,42.805,6.029,13.3031,4.60087,2470.67,2023-3-31T12:23:18Z
2023-03-31T10:23:32Z,42.805,6.029,13.3034,4.60089,2470.67,2023-3-31T12:26:21Z
2023-03-31T10:26:35Z,42.805,6.029,13.3035,4.60089,2470.646,2023-3-31T12:29:24Z
2023-03-31T10:29:38Z,42.805,6.029,13.3036,4.60091,2470.624,2023-3-31T12:32:27Z
2023-03-31T10:32:41Z,42.805,6.029,13.3036,4.60084,2470.67,2023-3-31T12:35:30Z
2023-03-31T10:35:45Z,42.805,6.029,13.3032,4.60089,2470.661,2023-3-31T12:38:33Z
2023-03-31T10:38:48Z,42.805,6.029,13.3029,4.60087,2470.646,2023-3-31T12:41:36Z
2023-03-31T10:41:51Z,42.805,6.029,13.3028,4.60084,2470.637,2023-3-31T12:44:39Z
2023-03-31T10:44:54Z,42.805,6.029,13.3031,4.60087,2470.646,2023-3-31T12:47:42Z
2023-03-31T10:47:57Z,42.805,6.029,13.3027,4.60080,2470.661,2023-3-31T12:50:45Z
2023-03-31T10:51:00Z,42.805,6.029,13.3029,4.60088,2470.646,2023-3-31T12:53:48Z
2023-03-31T10:54:03Z,42.805,6.029,13.3024,4.60086,2470.646,2023-3-31T12:56:52Z
2023-03-31T10:57:06Z,42.805,6.029,13.3029,4.60085,2470.624,2023-3-31T12:59:55Z
2023-03-31T11:00:09Z,42.805,6.029,13.3031,4.60088,2470.637,2023-3-31T13:02:58Z
2023-03-31T11:03:12Z,42.805,6.029,13.3031,4.60090,2470.646,2023-3-31T13:06:01Z
2023-03-31T11:06:15Z,42.805,6.029,13.3034,4.60089,2470.614,2023-3-31T13:09:04Z
2023-03-31T11:09:18Z,42.805,6.029,13.3031,4.60087,2470.646,2023-3-31T13:12:07Z
2023-03-31T11:12:22Z,42.805,6.029,13.3027,4.60087,2470.637,2023-3-31T13:15:10Z
2023-03-31T11:15:25Z,42.805,6.029,13.3030,4.60089,2470.624,2023-3-31T13:18:13Z
2023-03-31T11:18:28Z,42.805,6.029,13.3029,4.60089,2470.646,2023-3-31T13:21:16Z
2023-03-31T11:21:31Z,42.805,6.029,13.3035,4.60087,2470.624,2023-3-31T13:24:19Z
2023-03-31T11:24:34Z,42.805,6.029,13.3027,4.60084,2470.6,2023-3-31T13:27:22Z
2023-03-31T11:27:37Z,42.805,6.029,13.3027,4.60088,2470.6,2023-3-31T13:30:25Z
2023-03-31T11:30:40Z,42.805,6.029,13.3031,4.60091,2470.661,2023-3-31T13:33:29Z
2023-03-31T11:33:43Z,42.805,6.029,13.3027,4.60089,2470.637,2023-3-31T13:36:32Z
2023-03-31T11:36:46Z,42.805,6.029,13.3027,4.60079,2470.646,2023-3-31T13:39:35Z
2023-03-31T11:39:49Z,42.805,6.029,13.3030,4.60090,2470.637,2023-3-31T13:42:38Z
2023-03-31T11:42:52Z,42.805,6.029,13.3036,4.60103,2470.67,2023-3-31T13:45:41Z
2023-03-31T11:45:56Z,42.805,6.029,13.3031,4.60094,2470.637,2023-3-31T13:48:44Z
2023-03-31T11:48:59Z,42.805,6.029,13.3029,4.60095,2470.661,2023-3-31T13:51:47Z
2023-03-31T11:52:02Z,42.805,6.029,13.3033,4.60096,2470.637,2023-3-31T13:54:50Z
2023-03-31T11:55:05Z,42.805,6.029,13.3034,4.60092,2470.624,2023-3-31T13:57:53Z
2023-03-31T11:58:08Z,42.805,6.029,13.3036,4.60091,2470.661,2023-3-31T14:00:56Z
2023-03-31T12:01:11Z,42.805,6.029,13.3027,4.60088,2470.646,2023-3-31T14:03:59Z
2023-03-31T12:04:14Z,42.805,6.029,13.3033,4.60085,2470.624,2023-3-31T14:07:03Z
2023-03-31T12:07:17Z,42.805,6.029,13.3035,4.60087,2470.6,2023-3-31T14:10:06Z
2023-03-31T12:10:20Z,42.805,6.029,13.3031,4.60092,2470.624,2023-3-31T14:13:09Z
2023-03-31T12:13:23Z,42.805,6.029,13.3033,4.60088,2470.624,2023-3-31T14:16:12Z
2023-03-31T12:16:26Z,42.805,6.029,13.3027,4.60087,2470.624,2023-3-31T14:19:15Z
2023-03-31T12:19:29Z,42.805,6.029,13.3028,4.60101,2470.637,2023-3-31T14:22:18Z
2023-03-31T12:22:33Z,42.805,6.029,13.3026,4.60087,2470.661,2023-3-31T14:25:21Z
2023-03-31T12:25:36Z,42.805,6.029,13.3032,4.60090,2470.624,2023-3-31T14:28:24Z
2023-03-31T12:28:39Z,42.805,6.029,13.3031,4.60089,2470.591,2023-3-31T14:31:27Z
2023-03-31T12:31:42Z,42.805,6.029,13.3028,4.60096,2470.637,2023-3-31T14:34:30Z
2023-03-31T12:34:45Z,42.805,6.029,13.3031,4.60087,2470.646,2023-3-31T14:37:33Z
2023-03-31T12:37:48Z,42.805,6.029,13.3029,4.60086,2470.614,2023-3-31T14:40:36Z
2023-03-31T12:40:51Z,42.805,6.029,13.3036,4.60088,2470.661,2023-3-31T14:43:40Z
2023-03-31T12:43:54Z,42.805,6.029,13.3029,4.60087,2470.624,2023-3-31T14:46:43Z
2023-03-31T12:46:57Z,42.805,6.029,13.3033,4.60081,2470.624,2023-3-31T14:49:46Z
2023-03-31T12:50:00Z,42.805,6.029,13.3033,4.60089,2470.661,2023-3-31T14:52:49Z
2023-03-31T12:53:03Z,42.805,6.029,13.3032,4.60086,2470.637,2023-3-31T14:55:52Z
2023-03-31T12:56:07Z,42.805,6.029,13.3028,4.60087,2470.637,2023-3-31T14:58:55Z
2023-03-31T12:59:10Z,42.805,6.029,13.3028,4.60089,2470.624,2023-3-31T15:01:58Z
2023-03-31T13:02:13Z,42.805,6.029,13.3031,4.60086,2470.637,2023-3-31T15:05:01Z
2023-03-31T13:05:16Z,42.805,6.029,13.3029,4.60092,2470.661,2023-3-31T15:08:04Z
2023-03-31T13:08:19Z,42.805,6.029,13.3029,4.60089,2470.661,2023-3-31T15:11:07Z
2023-03-31T13:11:22Z,42.805,6.029,13.3026,4.60087,2470.661,2023-3-31T15:14:10Z
2023-03-31T13:14:25Z,42.805,6.029,13.3030,4.60092,2470.6,2023-3-31T15:17:14Z
2023-03-31T13:17:28Z,42.805,6.029,13.3030,4.60084,2470.6,2023-3-31T15:20:17Z
2023-03-31T13:20:31Z,42.805,6.029,13.3033,4.60088,2470.646,2023-3-31T15:23:20Z
2023-03-31T13:23:34Z,42.805,6.029,13.3031,4.60089,2470.624,2023-3-31T15:26:23Z
2023-03-31T13:26:37Z,42.805,6.029,13.3029,4.60084,2470.646,2023-3-31T15:29:26Z
2023-03-31T13:29:40Z,42.805,6.029,13.3029,4.60080,2470.646,2023-3-31T15:32:29Z
2023-03-31T13:32:44Z,42.805,6.029,13.3031,4.60088,2470.637,2023-3-31T15:35:32Z
2023-03-31T13:35:47Z,42.805,6.029,13.3031,4.60091,2470.6,2023-3-31T15:38:35Z
2023-03-31T13:38:50Z,42.805,6.029,13.3029,4.60091,2470.6,2023-3-31T15:41:38Z
2023-03-31T13:41:53Z,42.805,6.029,13.3028,4.60097,2470.661,2023-3-31T15:44:41Z
2023-03-31T13:44:56Z,42.805,6.029,13.3029,4.60091,2470.624,2023-3-31T15:47:44Z
2023-03-31T13:47:59Z,42.805,6.029,13.3033,4.60088,2470.646,2023-3-31T15:50:48Z
2023-03-31T13:51:02Z,42.805,6.029,13.3029,4.60084,2470.624,2023-3-31T15:53:51Z
2023-03-31T13:54:05Z,42.805,6.029,13.3029,4.60085,2470.646,2023-3-31T15:56:54Z
2023-03-31T13:57:08Z,42.805,6.029,13.3032,4.60084,2470.624,2023-3-31T15:59:57Z
2023-03-31T14:00:11Z,42.805,6.029,13.3030,4.60087,2470.624,2023-3-31T16:03:00Z
2023-03-31T14:03:14Z,42.805,6.029,13.3036,4.60085,2470.684,2023-3-31T16:06:03Z
2023-03-31T14:06:17Z,42.805,6.029,13.3029,4.60087,2470.624,2023-3-31T16:09:06Z
2023-03-31T14:09:21Z,42.805,6.029,13.3027,4.60087,2470.661,2023-3-31T16:12:09Z
2023-03-31T14:12:24Z,42.805,6.029,13.3031,4.60083,2470.637,2023-3-31T16:15:12Z
2023-03-31T14:15:27Z,42.805,6.029,13.3029,4.60087,2470.624,2023-3-31T16:18:15Z
2023-03-31T14:18:30Z,42.805,6.029,13.3034,4.60087,2470.646,2023-3-31T16:21:18Z
2023-03-31T14:21:33Z,42.805,6.029,13.3032,4.60088,2470.661,2023-3-31T16:24:21Z
2023-03-31T14:24:36Z,42.805,6.029,13.3029,4.60087,2470.646,2023-3-31T16:27:25Z
2023-03-31T14:27:39Z,42.805,6.029,13.3028,4.60089,2470.6,2023-3-31T16:30:28Z
2023-03-31T14:30:42Z,42.805,6.029,13.3031,4.60088,2470.661,2023-3-31T16:33:31Z
2023-03-31T14:33:45Z,42.805,6.029,13.3030,4.60088,2470.661,2023-3-31T16:36:34Z
2023-03-31T14:36:48Z,42.805,6.029,13.3032,4.60087,2470.67,2023-3-31T16:39:37Z
2023-03-31T14:39:51Z,42.805,6.029,13.3029,4.60088,2470.661,2023-3-31T16:42:40Z
2023-03-31T14:42:55Z,42.805,6.029,13.3034,4.60087,2470.67,2023-3-31T16:45:43Z
2023-03-31T14:45:58Z,42.805,6.029,13.3031,4.60090,2470.661,2023-3-31T16:48:46Z
2023-03-31T14:49:01Z,42.805,6.029,13.3032,4.60084,2470.646,2023-3-31T16:51:49Z
2023-03-31T14:52:04Z,42.805,6.029,13.3029,4.60092,2470.6,2023-3-31T16:54:52Z
2023-03-31T14:55:07Z,42.805,6.029,13.3030,4.60092,2470.661,2023-3-31T16:57:55Z
2023-03-31T14:58:10Z,42.805,6.029,13.3031,4.60089,2470.67,2023-3-31T17:00:59Z
2023-03-31T15:01:13Z,42.805,6.029,13.3032,4.60092,2470.646,2023-3-31T17:04:02Z
2023-03-31T15:04:16Z,42.805,6.029,13.3031,4.60087,2470.67,2023-3-31T17:07:05Z
2023-03-31T15:07:19Z,42.805,6.029,13.3030,4.60087,2470.646,2023-3-31T17:10:08Z
2023-03-31T15:10:22Z,42.805,6.029,13.3033,4.60092,2470.624,2023-3-31T17:13:11Z
2023-03-31T15:13:25Z,42.805,6.029,13.3033,4.60090,2470.614,2023-3-31T17:16:14Z